Location: Recife
(8.0585°S, 34.8848°W)
Time: 12:39:21
(UTC-03:00)

Altair - Visible Passes

Search period start: 14 April 2026 00:00
Search period end: 24 April 2026 00:00
Orbit: 1502 x 1682 km, 47.2° (Epoch: 14 April)

Date Brightness Start Highest point End Pass type
(mag) Time Alt. Az. Time Alt. Az. Time Alt. Az.
16 Apr 9.3 20:25:56 10° NNW 20:27:18 15° NNW 20:27:18 15° NNW visible
17 Apr 8.9 20:00:59 10° NNW 20:03:48 20° N 20:03:48 20° N visible
18 Apr 8.6 19:36:04 10° N 19:40:23 25° NNE 19:40:23 25° NNE visible
19 Apr 8.4 19:11:13 10° N 19:17:00 27° NNE 19:17:00 27° NNE visible
19 Apr 9.5 21:14:11 10° NW 21:15:04 13° NW 21:15:04 13° NW visible
20 Apr 8.4 18:46:25 10° N 18:53:35 25° NE 18:53:41 25° NE visible
20 Apr 9.1 20:48:51 10° NW 20:51:44 23° NW 20:51:44 23° NW visible
21 Apr 8.5 18:21:41 10° N 18:28:21 22° NE 18:30:24 20° ENE visible
21 Apr 8.5 20:23:32 10° NW 20:28:27 36° NW 20:28:27 36° NW visible
22 Apr 9.4 05:00:57 10° S 05:08:05 22° SE 05:15:18 10° E visible
22 Apr 8.7 17:57:03 10° N 18:03:07 19° NE 18:07:09 14° E visible
22 Apr 7.8 19:58:15 10° NW 20:05:13 56° NW 20:05:13 56° NW visible
23 Apr 9.4 04:36:08 10° S 04:42:42 20° SE 04:49:20 10° E visible
23 Apr 8.8 17:32:33 10° NNE 17:37:51 16° NE 17:43:04 10° E visible
23 Apr 7.3 19:33:00 10° NW 19:42:01 85° NW 19:42:01 85° NW visible
